INTELSAT 33E DEB, 64406

Orbit data source: Space-Track

INTELSAT 33E DEB, 64406 is space debris in GEO originally from a launch on Wed, 24 Aug 2016 UTC launched from the French Guiana (FRGUI). Debris objects in space refer to the collection of defunct objects orbiting the Earth. Examples of debris include non-operational satellites, rocket bodies, and fragments generated from explosions, collisions, or faulty payload assembly.

Not visible in the next 10 days
Identifier
64406, 2016-053AL
Orbit
GEO
Country
Flag of USUS / ITSO
Related business
Manufacturer
Boeing/ES
Mission
Spacecraft
Bus & Motor
Unknown
Mass
Unknown
Launch date (UTC)
2016-08-24 (10 years ago)
Launch vehicle
Unknown
Launch site
French Guiana (FRGUI)
Object type
Payload
Rocket body
Debris
Shape & HBR
Unknown shape, 1.1 m
Radar Cross Section
RCS unknown

Expand to show TLE details & history
Last TLE update: 1 day ago

TLE from 1 day ago
0 INTELSAT 33E DEB
1 64406U 16053AL  26202.06217916 -.00000265  00000-0  00000-0 0  9993
2 64406   1.5524  70.6221 0135858  48.5465 312.4336  0.98887220  6179
Epoch: 2026-07-21T01:29Z
TLE epoch observation values (Epoch: 2026-07-21T01:29:32.279Z)
Latitude
-0.00001°
Longitude
109.22825°
Altitude
35,791.114 km
Speed
3.089 km/s
True Right ascension
04h 41m 48s
True Declination
0° 00' 00"
Sunlit
Object was in daylight at epoch
Visualization orbit readout
Latitude
Unknown
Longitude
Unknown
Altitude
Unknown
Speed
Unknown
Apparent Right ascension
Unknown
Apparent Declination
Unknown
Sunlit
N/A
Visualization observer readout
Local Sidereal Time
17:53:30
Azimuth
Unknown
Elevation
Unknown
Doppler factor
Unknown
Orbital elements
Apogee altitude
36,758.511 km
Perigee altitude
35,602.13 km
Semi-major axis
42,558.458 km
Eccentricity
0.01359
Inclination
1.5524°
RAAN
70.6221°
Arg. of periapsis
48.5465°
True anomaly
311.27134°
Mean anomaly
312.4336°
Eccentric anomaly
311.8538°
Mean motion
0.24721 °/min
Orbital period
1,456.26 mins
BSTAR
0
Loading maneuver chart data...
Computing Atmospheric mass density...
Loading historical data...
Loading historical data...
Loading historical data...
Loading historical data...
Loading historical data...
Loading historical data...
Loading historical data...

Documentation

Showing up to 5 results
|